Gulfport, MS

9:24 AM CDT on April 19, 2018 (GMT -0500)
Gulfport-Biloxi Regional

Weather History for KGPT - June, 2013

Change the Weather History Date:

Monday, June 24, 2013

  Actual Average Record
Temperature  
Mean Temperature 84 °F -  
Max Temperature 90 °F 89 °F 99 °F (1978)
Min Temperature 79 °F 72 °F 62 °F (1990)
Cooling Degree Days 20    
Growing Degree Days 34 (Base 50)    
Moisture  
Dew Point 72 °F    
Average Humidity 68    
Maximum Humidity 88    
Minimum Humidity 45    
Precipitation  
Precipitation 0.00 in - - ()
Sea Level Pressure  
Sea Level Pressure 30.10 in    
Wind  
Wind Speed 5 mph (South)    
Max Wind Speed 13 mph    
Max Gust Speed 17 mph    
Visibility 10 miles    
Events      
Averages and records for this station are not official NWS values.
T = Trace of Precipitation, MM = Missing Value Source: NWS Daily Summary

Daily Weather History Graph

Daily Weather History Graph

Search for Another Location

Airport or City:

Astronomy

Jun. 24, 2013 Rise Set
Actual Time 5:55 AM CDT 8:02 PM CDT
Civil Twilight 5:27 AM CDT 8:29 PM CDT
Nautical Twilight 4:54 AM CDT 9:03 PM CDT
Astronomical Twilight 4:18 AM CDT 9:39 PM CDT
Moon 9:13 PM CDT (6/24) 7:16 AM CDT (6/24)
Length of Visible Light 15h 01m
Length of Day
14h 06m
Full, 98% of the Moon is Illuminated
Jun 24
Full
Jun 29
Last Quarter
Jul 8
New
Jul 15
First Quarter
Jul 22
Full

Hourly Weather History & Observations

Time (CDT) Temp. Heat Index Dew Point Humidity Pressure Visibility Wind Dir Wind Speed Gust Speed Precip Events Conditions
12:53 AM 80.1 °F 84.5 °F 73.9 °F 81% 30.07 in 10.0 mi Calm Calm - 0.00 in   Partly Cloudy
1:53 AM 79.0 °F - 75.0 °F 88% 30.08 in 10.0 mi Calm Calm - N/A   Scattered Clouds
2:53 AM 82.0 °F 87.9 °F 73.9 °F 76% 30.08 in 10.0 mi Calm Calm - N/A   Partly Cloudy
3:53 AM 82.9 °F 89.4 °F 73.9 °F 74% 30.09 in 10.0 mi South 6.9 mph - N/A   Scattered Clouds
4:53 AM 82.9 °F 88.8 °F 73.0 °F 72% 30.09 in 10.0 mi South 4.6 mph - N/A   Clear
5:39 AM 82.4 °F 88.2 °F 73.4 °F 74% 30.10 in 10.0 mi South 6.9 mph - N/A   Mostly Cloudy
5:49 AM 82.4 °F 86.3 °F 69.8 °F 66% 30.10 in 10.0 mi South 6.9 mph - N/A   Scattered Clouds
5:53 AM 82.0 °F 85.9 °F 70.0 °F 67% 30.10 in 10.0 mi South 8.1 mph - N/A   Scattered Clouds
6:53 AM 81.0 °F 85.8 °F 73.0 °F 77% 30.11 in 10.0 mi SSW 3.5 mph - N/A   Partly Cloudy
7:53 AM 82.9 °F 90.2 °F 75.0 °F 77% 30.12 in 9.0 mi SSW 3.5 mph - N/A   Mostly Cloudy
8:53 AM 86.0 °F 95.1 °F 75.0 °F 70% 30.14 in 10.0 mi South 8.1 mph - N/A   Partly Cloudy
9:53 AM 86.0 °F 93.8 °F 73.9 °F 67% 30.15 in 10.0 mi SSE 11.5 mph - N/A   Partly Cloudy
10:53 AM 87.1 °F 94.5 °F 73.0 °F 63% 30.14 in 10.0 mi South 11.5 mph - N/A   Partly Cloudy
11:53 AM 88.0 °F 95.6 °F 73.0 °F 61% 30.14 in 10.0 mi South 12.7 mph 17.3 mph N/A   Clear
12:53 PM 90.0 °F 96.4 °F 71.1 °F 54% 30.14 in 10.0 mi South 8.1 mph - N/A   Partly Cloudy
1:53 PM 89.1 °F 94.1 °F 70.0 °F 53% 30.12 in 10.0 mi SSE 8.1 mph - N/A   Clear
2:53 PM 89.1 °F 93.7 °F 69.1 °F 52% 30.12 in 10.0 mi South 8.1 mph - N/A   Clear
3:53 PM 90.0 °F 92.4 °F 66.0 °F 45% 30.10 in 10.0 mi SSE 8.1 mph - N/A   Clear
4:53 PM 88.0 °F 93.8 °F 71.1 °F 57% 30.07 in 10.0 mi SSE 11.5 mph - N/A   Clear
5:53 PM 87.1 °F 94.5 °F 73.0 °F 63% 30.06 in 10.0 mi South 8.1 mph - N/A   Clear
6:53 PM 86.0 °F 92.2 °F 72.0 °F 63% 30.07 in 10.0 mi South 4.6 mph - N/A   Clear
7:53 PM 84.9 °F 91.4 °F 73.0 °F 67% 30.07 in 10.0 mi SE 8.1 mph - N/A   Clear
8:53 PM 84.9 °F 91.4 °F 73.0 °F 67% 30.09 in 10.0 mi SSE 5.8 mph - N/A   Partly Cloudy
9:53 PM 84.0 °F 90.2 °F 73.0 °F 69% 30.10 in 10.0 mi SSE 3.5 mph - N/A   Clear
10:53 PM 82.0 °F 87.9 °F 73.9 °F 76% 30.11 in 10.0 mi Calm Calm - 0.00 in   Mostly Cloudy
11:53 PM 81.0 °F 86.2 °F 73.9 °F 79% 30.11 in 10.0 mi Calm Calm - N/A   Clear